Location: Unspecified
(0.0000°N, 0.0000°E)
Time: 23:25:27
(UTC+02:00)

DELTA 2 R/B (1) - Visible Passes

Search period start: 30 June 2015 00:00
Search period end: 10 July 2015 00:00
Orbit: 791 x 804 km, 39.6° (Epoch: 29 June)

Date Brightness Start Highest point End Pass type
(mag) Time Alt. Az. Time Alt. Az. Time Alt. Az.
30 Jun 5.3 05:26:16 25° NNE 05:27:41 28° NE 05:32:27 10° E visible
30 Jun 4.0 07:08:51 10° WNW 07:14:06 41° SW 07:19:19 10° SSE visible
01 Jul 6.1 05:00:00 16° E 05:00:00 16° E 05:01:30 10° E visible
01 Jul 3.8 06:40:58 29° W 06:43:22 47° SW 06:48:42 10° SSE visible
02 Jul 4.1 06:14:06 42° S 06:14:06 42° S 06:18:05 10° SE visible
03 Jul 5.8 05:46:45 13° SE 05:46:45 13° SE 05:47:25 10° SE visible
